sat.trackr.live / text

‹ back to catalog

STARLINK-31037

NORAD 58536 · 2023-192F

PAYLOAD ACTIVE UNKNOWN

§ Identity

Operator
Country
US
Launch date
2023-12-08
Launch site
AFWTR
Launch vehicle
Mass (kg)
RCS (m²)

Purposes: comms

External: N2YO · Heavens-Above · Gunter

§ Orbital elements

Epoch: 2026-05-25T04:31:52.667328Z

Period
93.85 min
Inclination
53.1621°
Eccentricity
0.0001216
Mean motion
15.34401245 rev/d
Perigee alt
461.9 km
Apogee alt
463.5 km
Semi-major
6,840.8 km
B*
-2.2869e-5
RAAN
67.0114°
Arg perigee
85.5875°
Mean anomaly
274.5266°
Rev number
13,770

§ Raw data

STARLINK-310371 58536U 23192F   26145.18880402 -.00001149  00000+0 -22869-4 0  99902 58536  53.1621  67.0114 0001216  85.5875 274.5266 15.34401245137703

JSON: /api/v1/satellites/58536 · /tle

For live sub-satellite position, see the globe view (requires WebGL).

§ Visibility from observer

Set your observer location to see the next 7 days of passes ≥ 10°. The values pass through the URL so the page stays shareable.

No JS? Fill the form by hand. The geolocation button needs JavaScript.